Location: Newark
(34.9756°N, 138.3828°E)
Time: 21:11:20
(UTC+00:00)

N. Korean satellite - Visible Passes

Search period start: 10 December 2019 00:00
Search period end: 20 December 2019 00:00
Orbit: 456 x 506 km, 97.2° (Epoch: 09 December)

Date Brightness Start Highest point End Pass type
(mag) Time Alt. Az. Time Alt. Az. Time Alt. Az.
10 Dec 6.5 20:47:33 10° N 20:51:00 58° WNW 20:54:24 10° SSW visible
11 Dec 9.9 08:54:10 10° SW 08:56:17 15° W 08:58:24 10° WNW visible
11 Dec 7.2 20:22:09 10° NNE 20:25:35 54° E 20:28:58 10° S visible
12 Dec 8.8 08:27:26 10° SSW 08:30:45 31° W 08:34:03 10° NNW visible
12 Dec 9.0 19:57:15 10° NE 20:00:05 23° E 20:02:52 10° SSE visible
13 Dec 7.0 08:01:36 10° S 08:05:16 72° WSW 08:08:58 10° NNW visible
13 Dec 10.1 19:33:52 10° E 19:34:29 10° E 19:35:06 10° ESE visible
13 Dec 7.2 21:04:51 10° N 21:07:59 32° WNW 21:11:04 10° SW visible
14 Dec 6.3 20:39:09 10° N 20:42:38 79° WNW 20:46:03 10° SSW visible
15 Dec 9.7 08:45:15 10° SW 08:47:53 18° W 08:50:30 10° NW visible
15 Dec 7.9 20:13:53 10° NNE 20:17:11 40° E 20:20:25 10° S visible
16 Dec 8.2 08:18:53 10° S 08:22:21 39° W 08:25:50 10° NNW visible
16 Dec 9.4 19:49:13 10° NE 19:51:38 18° E 19:54:02 10° SE visible
17 Dec 6.8 20:56:20 10° N 20:59:37 42° WNW 21:02:51 10° SSW visible
18 Dec 10.2 09:04:06 10° WSW 09:05:03 11° W 09:05:59 10° WNW visible
18 Dec 6.6 20:30:45 10° NNE 20:34:13 77° ESE 20:37:37 10° S visible
19 Dec 9.3 08:36:29 10° SSW 08:39:28 23° W 08:42:26 10° NW visible
19 Dec 8.4 20:05:39 10° NE 20:08:44 30° E 20:11:47 10° SSE visible
